Terug naar catalogus

SL-3 DEB

ActiefSSO
NORAD 24893·DEBRIS·🇷🇺 Russia

Gelanceerd Apr 20, 1988 vanaf Baikonur Cosmodrome

Loading…

Volgende Passages (komende 24 uur)

TLE

VersSource: Space-Track

Epoch: Sep 14, 2026, 09:34 UTC

1 24893U 88032C   26257.39930426  .00000889  00000-0  63839-4 0  9993
2 24893  97.6457 228.3492 0021741 242.6029 269.3333 15.06720003842294

Volg SL-3 DEB in realtime met AllMySat

Download on the App Store